| time (UTC) | temp F | wind direction | speed MPH | gust MPH | rain 1hr in | rain 24hr in | rain mn in | humidity % | barometer mb |
| 20260905134212 | 76 | 204 | 7.0 | 11.0 | 0.00 | 0.01 | 0.01 | 69 | 1023.1 |
| 20260905133213 | 75 | 196 | 8.0 | 13.0 | 0.00 | 0.01 | 0.01 | 68 | 1023.1 |
| 20260905132212 | 75 | 247 | 7.0 | 13.0 | 0.00 | 0.01 | 0.01 | 69 | 1023.1 |
| 20260905131212 | 75 | 182 | 6.0 | 10.0 | 0.00 | 0.01 | 0.01 | 70 | 1023.2 |
| 20260905130212 | 75 | 200 | 4.0 | 14.0 | 0.00 | 0.01 | 0.01 | 70 | 1023.2 |
| 20260905125212 | 75 | 207 | 4.0 | 14.0 | 0.00 | 0.01 | 0.01 | 71 | 1023.2 |
| 20260905124212 | 74 | 194 | 4.0 | 11.0 | 0.00 | 0.01 | 0.01 | 72 | 1023.1 |
| 20260905123212 | 75 | 237 | 9.0 | 14.0 | 0.00 | 0.01 | 0.01 | 71 | 1023.0 |
| 20260905122212 | 75 | 210 | 7.0 | 16.0 | 0.00 | 0.01 | 0.01 | 70 | 1023.1 |
| 20260905121212 | 74 | 229 | 9.0 | 13.0 | 0.00 | 0.01 | 0.01 | 69 | 1023.1 |
| 20260905120212 | 74 | 220 | 7.0 | 13.0 | 0.00 | 0.01 | 0.01 | 70 | 1023.2 |
| 20260905115212 | 74 | 228 | 6.0 | 12.0 | 0.00 | 0.01 | 0.01 | 71 | 1023.0 |
| 20260905114211 | 74 | 228 | 7.0 | 14.0 | 0.00 | 0.01 | 0.01 | 73 | 1023.1 |
| 20260905113211 | 74 | 212 | 6.0 | 14.0 | 0.00 | 0.01 | 0.01 | 72 | 1022.9 |
| 20260905112212 | 74 | 205 | 6.0 | 12.0 | 0.00 | 0.01 | 0.01 | 71 | 1023.0 |
| 20260905111211 | 74 | 205 | 6.0 | 10.0 | 0.00 | 0.01 | 0.01 | 72 | 1023.1 |
| 20260905110211 | 74 | 225 | 6.0 | 13.0 | 0.00 | 0.01 | 0.01 | 74 | 1023.0 |
| 20260905105212 | 73 | 234 | 6.0 | 11.0 | 0.00 | 0.01 | 0.01 | 76 | 1023.0 |
| 20260905104211 | 72 | 239 | 4.0 | 7.0 | 0.00 | 0.01 | 0.01 | 77 | 1023.0 |
| 20260905103211 | 72 | 218 | 3.0 | 6.0 | 0.00 | 0.01 | 0.01 | 80 | 1023.0 |
| 20260905102211 | 71 | 246 | 3.0 | 6.0 | 0.00 | 0.01 | 0.01 | 83 | 1022.9 |
| 20260905101211 | 70 | 157 | 2.0 | 4.0 | 0.00 | 0.01 | 0.01 | 87 | 1022.8 |
| 20260905100211 | 69 | 259 | 1.0 | 3.0 | 0.00 | 0.01 | 0.01 | 89 | 1022.7 |
| 20260905095211 | 69 | 205 | 3.0 | 6.0 | 0.00 | 0.01 | 0.01 | 90 | 1022.7 |
| 20260905094212 | 69 | 148 | 3.0 | 6.0 | 0.00 | 0.01 | 0.01 | 91 | 1022.6 |
| 20260905093212 | 69 | 258 | 4.0 | 7.0 | 0.00 | 0.01 | 0.01 | 91 | 1022.7 |
| 20260905092211 | 69 | 156 | 2.0 | 5.0 | 0.00 | 0.01 | 0.01 | 91 | 1022.6 |
| 20260905091211 | 69 | 172 | 2.0 | 5.0 | 0.00 | 0.01 | 0.01 | 91 | 1022.5 |
| 20260905090211 | 68 | 216 | 1.0 | 3.0 | 0.00 | 0.01 | 0.01 | 91 | 1022.2 |
| 20260905085211 | 68 | 174 | 2.0 | 5.0 | 0.00 | 0.01 | 0.01 | 91 | 1022.2 |
| 20260905084211 | 68 | 186 | 3.0 | 6.0 | 0.00 | 0.00 | 0.00 | 91 | 1022.1 |
| 20260905083211 | 67 | 155 | 2.0 | 4.0 | 0.00 | 0.00 | 0.00 | 91 | 1022.1 |
| 20260905082211 | 67 | 152 | 0.0 | 0.0 | 0.00 | 0.00 | 0.00 | 91 | 1022.1 |
| 20260905081211 | 67 | 24 | 0.0 | 0.0 | 0.00 | 0.00 | 0.00 | 92 | 1022.1 |
| 20260905080211 | 67 | 24 | 0.0 | 0.0 | 0.00 | 0.00 | 0.00 | 92 | 1021.9 |
| 20260905075211 | 67 | 348 | 0.0 | 0.0 | 0.00 | 0.00 | 0.00 | 92 | 1021.9 |
| 20260905074211 | 67 | 33 | 0.0 | 0.0 | 0.00 | 0.00 | 0.00 | 92 | 1021.8 |
| 20260905073211 | 67 | 342 | 0.0 | 0.0 | 0.00 | 0.00 | 0.00 | 92 | 1021.8 |
| 20260905072211 | 67 | 324 | 0.0 | 0.0 | 0.00 | 0.00 | 0.00 | 92 | 1021.7 |
| 20260905071211 | 66 | 217 | 0.0 | 0.0 | 0.00 | 0.00 | 0.00 | 92 | 1021.4 |
| 20260905070211 | 66 | 243 | 0.0 | 0.0 | 0.00 | 0.00 | 0.00 | 91 | 1021.4 |
| 20260905065211 | 66 | 243 | 0.0 | 0.0 | 0.00 | 0.00 | 0.00 | 91 | 1021.2 |
| 20260905064211 | 66 | 243 | 0.0 | 0.0 | 0.00 | 0.00 | 0.00 | 91 | 1021.1 |
| 20260905063211 | 66 | 159 | 0.0 | 0.0 | 0.00 | 0.00 | 0.00 | 91 | 1021.0 |
| 20260905062211 | 66 | 315 | 0.0 | 0.0 | 0.00 | 0.00 | 0.00 | 91 | 1021.0 |
| 20260905061211 | 66 | 315 | 0.0 | 4.0 | 0.00 | 0.00 | 0.00 | 91 | 1021.0 |
| 20260905060211 | 66 | 348 | 3.0 | 5.0 | 0.00 | 0.00 | 0.00 | 90 | 1021.1 |
| 20260905055211 | 66 | 343 | 2.0 | 5.0 | 0.00 | 0.00 | 0.00 | 90 | 1021.0 |
| 20260905054211 | 66 | 346 | 3.0 | 8.0 | 0.00 | 0.00 | 0.00 | 90 | 1020.8 |
| 20260905053211 | 65 | 331 | 2.0 | 3.0 | 0.00 | 0.00 | 0.00 | 90 | 1020.4 |
| 20260905052211 | 65 | 82 | 1.0 | 4.0 | 0.00 | 0.00 | 0.00 | 89 | 1020.2 |
| 20260905051212 | 66 | 120 | 2.0 | 4.0 | 0.00 | 0.00 | 0.00 | 89 | 1019.9 |
| 20260905050211 | 66 | 89 | 3.0 | 7.0 | 0.00 | 0.00 | 0.00 | 88 | 1019.9 |
| 20260905045211 | 66 | 107 | 1.0 | 4.0 | 0.00 | 0.00 | 0.00 | 87 | 1020.0 |
| 20260905044211 | 66 | 105 | 3.0 | 6.0 | 0.00 | 0.00 | 0.00 | 86 | 1020.0 |
| 20260905043211 | 66 | 87 | 4.0 | 7.0 | 0.00 | 0.00 | 0.00 | 85 | 1019.9 |
| 20260905042211 | 66 | 61 | 2.0 | 4.0 | 0.00 | 0.00 | 0.00 | 84 | 1019.6 |
| 20260905041211 | 66 | 70 | 1.0 | 4.0 | 0.00 | 0.00 | 0.00 | 83 | 1019.4 |
| 20260905040211 | 67 | 58 | 4.0 | 6.0 | 0.00 | 0.00 | 0.00 | 83 | 1019.4 |
| 20260905035211 | 67 | 234 | 0.0 | 0.0 | 0.00 | 0.00 | 0.00 | 82 | 1019.4 |
| 20260905034211 | 67 | 253 | 0.0 | 0.0 | 0.00 | 0.00 | 0.00 | 80 | 1019.3 |
| 20260905033211 | 66 | 138 | 0.0 | 3.0 | 0.00 | 0.00 | 0.00 | 79 | 1018.8 |
| 20260905032211 | 66 | 188 | 2.0 | 5.0 | 0.00 | 0.00 | 0.00 | 79 | 1018.9 |
| 20260905031211 | 66 | 259 | 2.0 | 4.0 | 0.00 | 0.00 | 0.00 | 79 | 1019.0 |
| 20260905030211 | 66 | 217 | 0.0 | 3.0 | 0.00 | 0.00 | 0.00 | 79 | 1018.9 |
| 20260905025211 | 66 | 207 | 2.0 | 4.0 | 0.00 | 0.00 | 0.00 | 79 | 1018.9 |
| 20260905024211 | 66 | 254 | 0.0 | 0.0 | 0.00 | 0.00 | 0.00 | 79 | 1018.8 |
| 20260905023211 | 66 | 184 | 3.0 | 5.0 | 0.00 | 0.00 | 0.00 | 79 | 1018.7 |
| 20260905022211 | 67 | 173 | 0.0 | 2.0 | 0.00 | 0.00 | 0.00 | 79 | 1018.5 |
| 20260905021211 | 67 | 192 | 0.0 | 2.0 | 0.00 | 0.00 | 0.00 | 78 | 1018.7 |
| 20260905020211 | 67 | 287 | 0.0 | 2.0 | 0.00 | 0.00 | 0.00 | 78 | 1018.6 |
| 20260905015211 | 67 | 195 | 2.0 | 3.0 | 0.00 | 0.00 | 0.00 | 78 | 1018.5 |
| 20260905014211 | 67 | 178 | 2.0 | 3.0 | 0.00 | 0.00 | 0.00 | 78 | 1018.5 |
| 20260905013211 | 67 | 286 | 2.0 | 4.0 | 0.00 | 0.00 | 0.00 | 78 | 1018.5 |
| 20260905012211 | 67 | 208 | 4.0 | 5.0 | 0.00 | 0.00 | 0.00 | 78 | 1018.4 |
| 20260905011211 | 67 | 187 | 1.0 | 6.0 | 0.00 | 0.00 | 0.00 | 78 | 1018.5 |
| 20260905010211 | 67 | 229 | 3.0 | 7.0 | 0.00 | 0.00 | 0.00 | 78 | 1018.4 |
| 20260905005211 | 67 | 11 | 0.0 | 4.0 | 0.00 | 0.00 | 0.00 | 77 | 1018.1 |
| 20260905004211 | 67 | 66 | 0.0 | 0.0 | 0.00 | 0.00 | 0.00 | 77 | 1018.0 |
| 20260905003211 | 67 | 221 | 0.0 | 0.0 | 0.00 | 0.00 | 0.00 | 76 | 1018.2 |
| 20260905002211 | 68 | 175 | 0.0 | 0.0 | 0.00 | 0.00 | 0.00 | 75 | 1018.0 |
| 20260905001211 | 68 | 197 | 0.0 | 0.0 | 0.00 | 0.00 | 0.00 | 75 | 1018.0 |
| 20260905000211 | 68 | 88 | 0.0 | 0.0 | 0.00 | 0.00 | 0.00 | 75 | 1017.8 |
| 20260904235211 | 68 | 67 | 0.0 | 3.0 | 0.00 | 0.00 | 0.00 | 75 | 1017.7 |
| 20260904234211 | 68 | 82 | 1.0 | 3.0 | 0.00 | 0.00 | 0.00 | 75 | 1017.7 |
| 20260904233210 | 68 | 36 | 0.0 | 0.0 | 0.00 | 0.00 | 0.00 | 75 | 1017.6 |
| 20260904232211 | 68 | 80 | 2.0 | 6.0 | 0.00 | 0.00 | 0.00 | 76 | 1017.3 |
| 20260904231210 | 68 | 128 | 1.0 | 4.0 | 0.00 | 0.00 | 0.00 | 75 | 1017.3 |
| 20260904230211 | 69 | 105 | 2.0 | 3.0 | 0.00 | 0.00 | 0.00 | 74 | 1017.2 |
| 20260904225211 | 69 | 306 | 2.0 | 3.0 | 0.00 | 0.00 | 0.00 | 74 | 1017.1 |
| 20260904224211 | 69 | 268 | 2.0 | 3.0 | 0.00 | 0.00 | 0.00 | 74 | 1017.1 |
| 20260904223211 | 70 | 251 | 1.0 | 3.0 | 0.00 | 0.00 | 0.00 | 74 | 1016.8 |
| 20260904222210 | 70 | 251 | 1.0 | 3.0 | 0.00 | 0.00 | 0.00 | 73 | 1016.6 |
| 20260904221211 | 71 | 246 | 0.0 | 2.0 | 0.00 | 0.00 | 0.00 | 71 | 1016.4 |
| 20260904220211 | 71 | 246 | 0.0 | 3.0 | 0.00 | 0.00 | 0.00 | 70 | 1016.4 |
| 20260904215211 | 72 | 237 | 1.0 | 2.0 | 0.00 | 0.00 | 0.00 | 69 | 1016.3 |
| 20260904214211 | 72 | 248 | 1.0 | 3.0 | 0.00 | 0.00 | 0.00 | 68 | 1016.2 |
| 20260904213211 | 72 | 225 | 1.0 | 3.0 | 0.00 | 0.00 | 0.00 | 68 | 1016.2 |
| 20260904212211 | 73 | 229 | 1.0 | 4.0 | 0.00 | 0.00 | 0.00 | 67 | 1016.2 |
| 20260904211211 | 73 | 310 | 1.0 | 3.0 | 0.00 | 0.00 | 0.00 | 68 | 1016.1 |
| 20260904210211 | 74 | 265 | 2.0 | 4.0 | 0.00 | 0.00 | 0.00 | 67 | 1015.9 |
| 20260904205211 | 74 | 224 | 2.0 | 4.0 | 0.00 | 0.00 | 0.00 | 66 | 1015.9 |
| 20260904204211 | 74 | 202 | 3.0 | 4.0 | 0.00 | 0.00 | 0.00 | 66 | 1015.8 |
| 20260904203211 | 75 | 213 | 2.0 | 4.0 | 0.00 | 0.00 | 0.00 | 66 | 1015.8 |
| 20260904202211 | 75 | 225 | 2.0 | 3.0 | 0.00 | 0.00 | 0.00 | 64 | 1015.8 |
| 20260904201211 | 76 | 265 | 1.0 | 2.0 | 0.00 | 0.00 | 0.00 | 63 | 1015.7 |
| 20260904200211 | 76 | 291 | 1.0 | 3.0 | 0.00 | 0.00 | 0.00 | 62 | 1015.6 |
| 20260904195211 | 77 | 200 | 1.0 | 3.0 | 0.00 | 0.00 | 0.00 | 61 | 1015.6 |
| 20260904194212 | 77 | 204 | 1.0 | 3.0 | 0.00 | 0.00 | 0.00 | 60 | 1015.5 |
| 20260904193211 | 78 | 240 | 1.0 | 3.0 | 0.00 | 0.00 | 0.00 | 58 | 1015.5 |
| 20260904192211 | 78 | 202 | 2.0 | 4.0 | 0.00 | 0.00 | 0.00 | 58 | 1015.5 |
| 20260904191211 | 79 | 198 | 3.0 | 7.0 | 0.00 | 0.00 | 0.00 | 58 | 1015.3 |
| 20260904190211 | 79 | 196 | 2.0 | 7.0 | 0.00 | 0.00 | 0.00 | 58 | 1015.3 |
| 20260904185211 | 80 | 214 | 1.0 | 3.0 | 0.00 | 0.00 | 0.00 | 57 | 1015.2 |
| 20260904184211 | 81 | 240 | 2.0 | 6.0 | 0.00 | 0.00 | 0.00 | 56 | 1015.2 |
| 20260904183211 | 82 | 220 | 3.0 | 4.0 | 0.00 | 0.00 | 0.00 | 54 | 1015.1 |
| 20260904182211 | 83 | 235 | 3.0 | 4.0 | 0.00 | 0.00 | 0.00 | 53 | 1015.1 |
| 20260904181211 | 84 | 222 | 2.0 | 3.0 | 0.00 | 0.00 | 0.00 | 52 | 1014.9 |
| 20260904180211 | 84 | 260 | 2.0 | 4.0 | 0.00 | 0.00 | 0.00 | 50 | 1014.8 |
| 20260904175211 | 85 | 252 | 3.0 | 4.0 | 0.00 | 0.00 | 0.00 | 50 | 1014.8 |
| 20260904174211 | 85 | 259 | 2.0 | 3.0 | 0.00 | 0.00 | 0.00 | 49 | 1014.7 |
| 20260904173211 | 86 | 274 | 2.0 | 6.0 | 0.00 | 0.00 | 0.00 | 47 | 1014.7 |
| 20260904172211 | 86 | 264 | 3.0 | 7.0 | 0.00 | 0.00 | 0.00 | 47 | 1014.6 |
| 20260904171211 | 86 | 280 | 3.0 | 10.0 | 0.00 | 0.00 | 0.00 | 46 | 1014.7 |
| 20260904170211 | 87 | 305 | 3.0 | 9.0 | 0.00 | 0.00 | 0.00 | 45 | 1014.8 |
| 20260904165211 | 87 | 263 | 4.0 | 12.0 | 0.00 | 0.00 | 0.00 | 45 | 1014.7 |
| 20260904164211 | 87 | 320 | 6.0 | 11.0 | 0.00 | 0.00 | 0.00 | 44 | 1014.7 |
| 20260904163211 | 87 | 257 | 8.0 | 14.0 | 0.00 | 0.00 | 0.00 | 43 | 1014.6 |
| 20260904162211 | 88 | 235 | 6.0 | 13.0 | 0.00 | 0.00 | 0.00 | 44 | 1014.6 |
| 20260904161211 | 88 | 271 | 4.0 | 13.0 | 0.00 | 0.00 | 0.00 | 43 | 1014.6 |
| 20260904160211 | 88 | 319 | 8.0 | 12.0 | 0.00 | 0.00 | 0.00 | 43 | 1014.5 |
| 20260904155210 | 88 | 251 | 9.0 | 14.0 | 0.00 | 0.00 | 0.00 | 43 | 1014.6 |
| 20260904154211 | 88 | 286 | 9.0 | 15.0 | 0.00 | 0.00 | 0.00 | 43 | 1014.6 |
| 20260904153210 | 89 | 273 | 6.0 | 15.0 | 0.00 | 0.00 | 0.00 | 43 | 1014.6 |
| 20260904152211 | 89 | 259 | 8.0 | 17.0 | 0.00 | 0.00 | 0.00 | 43 | 1014.7 |
| 20260904151210 | 89 | 203 | 10.0 | 19.0 | 0.00 | 0.00 | 0.00 | 42 | 1014.6 |
| 20260904150210 | 89 | 277 | 8.0 | 17.0 | 0.00 | 0.00 | 0.00 | 43 | 1014.7 |
| 20260904145210 | 89 | 241 | 6.0 | 13.0 | 0.00 | 0.00 | 0.00 | 42 | 1014.6 |
| 20260904144210 | 89 | 191 | 9.0 | 15.0 | 0.00 | 0.00 | 0.00 | 42 | 1014.5 |
| 20260904143210 | 89 | 279 | 11.0 | 17.0 | 0.00 | 0.00 | 0.00 | 42 | 1014.6 |
| 20260904142210 | 90 | 250 | 11.0 | 17.0 | 0.00 | 0.00 | 0.00 | 42 | 1014.6 |
| 20260904141210 | 90 | 237 | 10.0 | 19.0 | 0.00 | 0.00 | 0.00 | 42 | 1014.8 |
| 20260904140210 | 90 | 218 | 9.0 | 16.0 | 0.00 | 0.00 | 0.00 | 42 | 1015.0 |
| 20260904135211 | 90 | 268 | 7.0 | 15.0 | 0.00 | 0.00 | 0.00 | 42 | 1015.1 |